Retour au catalogue

STARLINK-36866

ActifCommunicationsSSO
NORAD 67895·PAYLOAD·🇺🇸 United States

Lancé Feb 21, 2026 depuis Vandenberg Space Force Base

Loading…

Prochains Passages (prochaines 24 heures)

TLE

FraisSource: CelesTrak SupGP

Époque: Sep 14, 2026, 23:02 UTC

1 67895C 26035S   26257.96020833 -.00043784  00000+0 -13597-2 0  2575
2 67895  97.2848 189.8609 0001782  94.0055 215.0862 15.33448615    12

Suivez STARLINK-36866 en temps réel avec AllMySat

Download on the App Store